This demonstration page uses our WeatherBlox Daily Observations layout. Learn more.

39.92423, -83.80882

Hourly Observations for June 6, 2019

Temp ( °F °C ) Dew Point ( °F °C ) Humidity (%) Winds ( mph kmh ) Pressure ( in mb ) Visibility ( mi km ) Precip ( " mm )
12:56 am 00:56 Cloudy 68 20 67 19.4 96 96 W 8 13 29.81 1009 10 16.0934 0 0
1:56 am 01:56 Mostly Clear 67 19.4 66 18.9 97 97 WSW 6 9 29.8 1009 10 16.0934 0 0
2:56 am 02:56 Clear 65 18.3 65 18.3 100 100 W 6 9 29.81 1009 10 16.0934 0 0
3:56 am 03:56 Clear 65 18.3 65 18.3 100 100 WNW 5 7 29.8 1009 10 16.0934 0 0
4:56 am 04:56 Clear 63 17.2 63 17.2 100 100 Calm 29.81 1010 7 11.26538 0 0
5:56 am 05:56 Clear with Mist and Fog 63 17.2 63 17.2 100 100 SW 5 7 29.82 1010 5 8.0467 0 0
6:26 am 06:26 Sunny with Mist and Fog 63 17 63 17 100 100 W 6 9 29.82 1010 2.5 4.02335 0 0
6:36 am 06:36 Sunny with Mist and Fog 63 17 63 17 100 100 W 3 6 29.82 1010 3 4.82802 0 0
6:56 am 06:56 Sunny with Mist and Fog 62 16.7 62 16.7 100 100 WSW 3 6 29.83 1010 2 3.21868 0 0
7:35 am 07:35 Sunny with Mist and Fog 63 17 63 17 100 100 Calm 29.84 1011 1.75 2.816345 0 0
7:45 am 07:45 Sunny with Mist and Fog 64 18 64 18 100 100 N 3 6 29.84 1010 2.5 4.02335 0 0
7:56 am 07:56 Sunny with Mist and Fog 65 18.3 65 18.3 100 100 N 3 6 29.85 1011 3 4.82802 0 0
8:56 am 08:56 Sunny 70 21.1 67 19.4 90 90 NNE 8 13 29.86 1011 10 16.0934 0 0
9:52 am 09:52 Partly Cloudy with Mist and Fog 72 22 68 20 88 88 ENE 9 15 29.85 1011 5 8.0467 0 0
9:56 am 09:56 Partly Cloudy with Mist and Fog 71 21.7 68 20 90 90 ENE 8 13 29.88 1012 5 8.0467 0 0
10:03 am 10:03 Mostly Cloudy with Mist and Fog 72 22 66 19 83 83 E 8 13 29.85 1011 5 8.0467 0 0
10:56 am 10:56 Mostly Cloudy with Mist and Fog 71 21.7 67 19.4 87 87 ENE 7 11 29.89 1012 6 9.65604 0 0
11:14 am 11:14 Partly Cloudy 73 23 66 19 78 78 ENE 5 7 29.87 1012 8 12.87472 0 0
11:56 am 11:56 Mostly Sunny 75 23.9 69 20.6 82 82 VRB 5 7 29.9 1012 10 16.0934 0 0
12:15 pm 12:15 Mostly Cloudy 75 24 68 20 78 78 VRB 6 9 29.87 1011 10 16.0934 0 0
12:56 pm 12:56 Mostly Cloudy 77 25 67 19.4 71 71 VRB 3 6 29.89 1012 10 16.0934 0 0
1:04 pm 13:04 Partly Cloudy 77 25 66 19 69 69 E 6 9 29.85 1011 10 16.0934 0 0
1:56 pm 13:56 Mostly Cloudy 78 25.6 67 19.4 69 69 VRB 5 7 29.88 1012 10 16.0934 0 0
2:56 pm 14:56 Mostly Cloudy 79 26.1 66 18.9 65 65 VRB 7 11 29.87 1012 10 16.0934 0 0
3:56 pm 15:56 Mostly Cloudy 79 26.1 66 18.9 65 65 Calm 29.86 1011 10 16.0934 0 0
4:56 pm 16:56 Sunny 79 26.1 65 18.3 62 62 NNE 5 7 29.85 1011 10 16.0934 0 0
5:56 pm 17:56 Sunny 80 26.7 65 18.3 60 60 NE 7 11 29.85 1011 10 16.0934 0 0
6:08 pm 18:08 Hazy 81 27 64 18 58 58 NE 6 9 29.81 1009 1.5 2.41401 0 0
6:11 pm 18:11 Hazy 81 27 64 18 58 58 VRB 5 7 29.81 1009 0.5 0.80467 0 0
6:19 pm 18:19 Hazy 79 26 64 18 61 61 NE 8 13 29.81 1009 1 1.60934 0 0
6:21 pm 18:21 Sunny 79 26 64 18 61 61 NNE 6 9 29.81 1009 9 14.48406 0 0
6:56 pm 18:56 Sunny 77 25 65 18.3 66 66 NE 9 15 29.85 1011 10 16.0934 0 0
8:56 pm 20:56 Sunny 71 21.7 65 18.3 81 81 NE 10 17 29.87 1011 10 16.0934 0 0
9:56 pm 21:56 Clear 69 20.6 65 18.3 87 87 NE 13 20 29.88 1012 10 16.0934 0 0
10:56 pm 22:56 Clear 66 18.9 64 17.8 93 93 NE 9 15 29.91 1013 9 14.48406 0 0
11:56 pm 23:56 Clear 65 18.3 63 17.2 93 93 ENE 8 13 29.91 1013 9 14.48406 0 0

Powered by AerisWeather